Weather History for KDFI - January, 2012

Change the Weather History Date:

Thursday, January 12, 2012

  Actual Average Record
Temperature  
Mean Temperature 30 °F -  
Max Temperature 42 °F 29 °F 64 °F (2005)
Min Temperature 19 °F 12 °F -14 °F (1984)
Degree Days  
Heating Degree Days 34    
Moisture  
Dew Point 33 °F    
Average Humidity 88    
Maximum Humidity 93    
Minimum Humidity 68    
Precipitation  
Precipitation 0.09 in - - ()
Sea Level Pressure  
Sea Level Pressure 29.40 in    
Wind  
Wind Speed 8 mph (WSW)    
Max Wind Speed 22 mph    
Max Gust Speed 32 mph    
Visibility 3 miles    
Events Rain , Snow    
Averages and records for this station are not official NWS values.
T = Trace of Precipitation, MM = Missing Value Source: NWS Daily Summary

Daily Weather History Graph

Daily Weather History Graph

Search for Another Location

Airport or City:

Trip Planner

Search our weather history database for the weather conditions in past years. The results will help you decide how hot, cold, wet, or windy it might be!

Date:

Astronomy

Jan. 12, 2012 Rise Set
Actual Time 8:02 AM EST 5:29 PM EST
Civil Twilight 7:31 AM EST 6:00 PM EST
Nautical Twilight 6:57 AM EST 6:34 PM EST
Astronomical Twilight 6:24 AM EST 7:07 PM EST
Moon 9:37 PM EST (1/12) 9:43 AM EST (1/12)
Length of Visible Light 10h 28m
Length of Day
9h 26m
Waning Gibbous, 87% of the Moon is Illuminated
Jan 12
Waning Gibbous
Jan 16
Last Quarter
Jan 23
New
Jan 30
First Quarter
Feb 7
Full

Hourly Weather History & Observations

Time (EST) Temp. Windchill Dew Point Humidity Pressure Visibility Wind Dir Wind Speed Gust Speed Precip Events Conditions
12:06 AM 39.2 °F 35.0 °F 37.4 °F 93% 29.44 in 2.5 mi North 5.8 mph - 0.01 in Rain Light Rain
12:14 AM 39.2 °F 34.2 °F 37.4 °F 93% 29.44 in 2.0 mi NNE 6.9 mph - 0.01 in Rain Light Rain
12:53 AM 39.9 °F 35.8 °F 37.0 °F 89% 29.43 in 2.0 mi NNE 5.8 mph - 0.03 in Rain Light Rain
1:07 AM 39.2 °F 34.2 °F 37.4 °F 93% 29.42 in 2.5 mi NNE 6.9 mph - 0.00 in Rain Light Rain
1:14 AM 39.2 °F 34.2 °F 37.4 °F 93% 29.42 in 3.0 mi NNE 6.9 mph - 0.00 in Rain Light Rain
1:53 AM 39.9 °F 35.8 °F 37.0 °F 89% 29.42 in 4.0 mi NNE 5.8 mph - 0.02 in Rain Light Rain
2:43 AM 39.2 °F 35.0 °F 37.4 °F 93% 29.41 in 2.5 mi NNW 5.8 mph - 0.02 in Rain Light Rain
2:53 AM 39.0 °F 34.8 °F 37.0 °F 93% 29.43 in 2.5 mi NNW 5.8 mph - 0.02 in   Overcast
3:23 AM 39.2 °F 35.0 °F 37.4 °F 93% 29.42 in 1.8 mi NNW 5.8 mph - 0.01 in Rain Light Rain
3:32 AM 39.2 °F 34.2 °F 37.4 °F 93% 29.42 in 2.0 mi NNW 6.9 mph - 0.01 in Rain Light Rain
3:39 AM 39.2 °F 35.0 °F 37.4 °F 93% 29.41 in 2.5 mi NNW 5.8 mph - 0.01 in   Overcast
3:53 AM 39.9 °F 35.8 °F 37.0 °F 89% 29.42 in 2.0 mi North 5.8 mph - 0.01 in   Overcast
4:12 AM 39.2 °F 35.9 °F 37.4 °F 93% 29.41 in 2.5 mi NW 4.6 mph - N/A   Overcast
4:30 AM 39.2 °F 35.0 °F 37.4 °F 93% 29.41 in 3.0 mi NW 5.8 mph - N/A   Overcast
4:44 AM 39.2 °F 35.0 °F 37.4 °F 93% 29.41 in 2.5 mi NW 5.8 mph - N/A   Overcast
5:29 AM 39.2 °F 37.0 °F 37.4 °F 93% 29.40 in 3.0 mi NW 3.5 mph - N/A   Overcast
5:40 AM 39.2 °F - 37.4 °F 93% 29.40 in 2.5 mi Calm Calm - N/A   Overcast
5:51 AM 39.2 °F - 37.4 °F 93% 29.40 in 3.0 mi Calm Calm - N/A   Overcast
5:53 AM 39.9 °F - 37.9 °F 93% 29.41 in 3.0 mi Calm Calm - N/A   Overcast
6:16 AM 39.2 °F 37.0 °F 37.4 °F 93% 29.40 in 2.5 mi NW 3.5 mph - N/A   Overcast
6:53 AM 39.0 °F - 37.0 °F 93% 29.43 in 2.5 mi Calm Calm - N/A   Overcast
7:39 AM 39.2 °F 35.9 °F 37.4 °F 93% 29.42 in 2.0 mi WSW 4.6 mph - 0.01 in   Overcast
7:53 AM 39.0 °F 36.8 °F 37.0 °F 93% 29.43 in 2.0 mi West 3.5 mph - 0.01 in   Overcast
8:30 AM 39.2 °F 35.9 °F 37.4 °F 93% 29.41 in 1.5 mi West 4.6 mph - N/A   Overcast
8:53 AM 39.0 °F 35.7 °F 37.0 °F 93% 29.43 in 2.0 mi West 4.6 mph - N/A   Overcast
9:05 AM 39.2 °F 37.0 °F 37.4 °F 93% 29.41 in 2.5 mi Variable 3.5 mph - N/A   Overcast
9:46 AM 39.2 °F 35.0 °F 37.4 °F 93% 29.41 in 2.0 mi WSW 5.8 mph - N/A   Overcast
9:53 AM 39.9 °F 35.8 °F 37.0 °F 89% 29.43 in 2.0 mi WSW 5.8 mph - N/A   Overcast
10:31 AM 39.2 °F 35.9 °F 37.4 °F 93% 29.40 in 2.0 mi West 4.6 mph - N/A   Overcast
10:53 AM 41.0 °F 37.1 °F 37.9 °F 89% 29.41 in 2.5 mi WSW 5.8 mph - N/A   Overcast
11:03 AM 41.0 °F 37.1 °F 37.4 °F 87% 29.40 in 3.0 mi WSW 5.8 mph - N/A   Overcast
11:30 AM 41.0 °F 36.4 °F 37.4 °F 87% 29.39 in 3.0 mi SW 6.9 mph - N/A   Overcast
11:53 AM 41.0 °F 35.8 °F 37.9 °F 89% 29.39 in 3.0 mi SW 8.1 mph - N/A   Overcast
12:25 PM 42.8 °F 37.0 °F 37.4 °F 81% 29.37 in 3.0 mi SW 10.4 mph - N/A   Overcast
12:53 PM 42.1 °F 37.7 °F 37.9 °F 85% 29.37 in 3.0 mi WSW 6.9 mph - 0.00 in Rain Light Rain
1:08 PM 42.8 °F 36.6 °F 39.2 °F 87% 29.35 in 3.0 mi SW 11.5 mph 16.1 mph 0.00 in   Overcast
1:16 PM 41.0 °F 33.1 °F 37.4 °F 87% 29.35 in 2.5 mi SW 15.0 mph 19.6 mph 0.00 in   Overcast
1:22 PM 41.0 °F 34.7 °F 37.4 °F 87% 29.35 in 1.8 mi SW 10.4 mph 19.6 mph 0.00 in   Overcast
1:33 PM 41.0 °F 34.3 °F 37.4 °F 87% 29.35 in 2.0 mi SW 11.5 mph - 0.00 in   Overcast
1:40 PM 39.2 °F 31.2 °F 37.4 °F 93% 29.34 in 2.5 mi SW 13.8 mph 23.0 mph 0.00 in   Overcast
1:53 PM 39.0 °F 29.9 °F 35.1 °F 86% 29.36 in 2.5 mi SW 17.3 mph 23.0 mph 0.00 in   Overcast
2:06 PM 37.4 °F 28.9 °F 33.8 °F 87% 29.35 in 2.5 mi SW 13.8 mph 23.0 mph N/A   Overcast
2:33 PM 37.4 °F 29.3 °F 33.8 °F 87% 29.35 in 2.0 mi SW 12.7 mph 20.7 mph N/A   Overcast
2:53 PM 37.0 °F 29.3 °F 34.0 °F 89% 29.36 in 2.0 mi SW 11.5 mph - N/A   Overcast
3:06 PM 37.4 °F 29.8 °F 33.8 °F 87% 29.35 in 2.5 mi WSW 11.5 mph 20.7 mph N/A   Overcast
3:16 PM 37.4 °F 30.3 °F 33.8 °F 87% 29.35 in 2.0 mi SW 10.4 mph 19.6 mph N/A   Overcast
3:26 PM 35.6 °F 25.9 °F 33.8 °F 93% 29.36 in 2.0 mi SW 16.1 mph 21.9 mph N/A   Overcast
3:33 PM 35.6 °F 26.2 °F 33.8 °F 93% 29.36 in 1.5 mi SW 15.0 mph - N/A   Overcast
3:39 PM 35.6 °F 26.2 °F 33.8 °F 93% 29.36 in 2.0 mi SW 15.0 mph 21.9 mph N/A   Overcast
3:53 PM 35.1 °F 25.2 °F 32.0 °F 89% 29.38 in 2.0 mi SW 16.1 mph 24.2 mph N/A   Overcast
4:10 PM 33.8 °F 24.3 °F 30.2 °F 87% 29.37 in 1.8 mi SW 13.8 mph 21.9 mph 0.00 in Snow Light Snow
4:31 PM 33.8 °F 25.3 °F 30.2 °F 87% 29.38 in 2.0 mi SW 11.5 mph 23.0 mph 0.00 in Snow Light Snow
4:46 PM 33.8 °F 24.8 °F 30.2 °F 87% 29.39 in 2.5 mi WSW 12.7 mph 21.9 mph 0.00 in Snow Light Snow
4:53 PM 33.1 °F 23.4 °F 30.0 °F 89% 29.41 in 3.0 mi SW 13.8 mph 20.7 mph 0.00 in Snow Light Snow
4:59 PM 33.8 °F 23.5 °F 28.4 °F 81% 29.39 in 2.0 mi SW 16.1 mph 21.9 mph 0.00 in Snow Light Snow
5:07 PM 32.0 °F 22.5 °F 28.4 °F 87% 29.40 in 1.5 mi SW 12.7 mph 21.9 mph 0.00 in Snow Light Snow
5:30 PM 30.2 °F 21.3 °F 26.6 °F 86% 29.40 in 2.5 mi WSW 10.4 mph 24.2 mph 0.00 in Snow Light Snow
5:39 PM 30.2 °F 20.2 °F 26.6 °F 86% 29.41 in 4.0 mi WSW 12.7 mph 21.9 mph 0.00 in Snow Light Snow
5:46 PM 30.2 °F 20.2 °F 24.8 °F 80% 29.41 in 4.0 mi WSW 12.7 mph 21.9 mph 0.00 in Snow Light Snow
5:53 PM 30.0 °F 19.1 °F 25.0 °F 82% 29.44 in 4.0 mi SW 15.0 mph 24.2 mph 0.00 in Snow Light Snow
6:02 PM 28.4 °F 18.0 °F 23.0 °F 80% 29.42 in 9.0 mi WSW 12.7 mph 23.0 mph 0.00 in   Overcast
6:16 PM 28.4 °F 18.0 °F 21.2 °F 74% 29.42 in 10.0 mi WSW 12.7 mph 25.3 mph 0.00 in   Mostly Cloudy
6:53 PM 26.1 °F 13.6 °F 19.0 °F 75% 29.46 in 10.0 mi WSW 16.1 mph 25.3 mph 0.00 in   Overcast
7:53 PM 24.1 °F 11.5 °F 17.1 °F 75% 29.47 in 10.0 mi WSW 15.0 mph 25.3 mph N/A   Overcast
8:53 PM 23.0 °F 9.6 °F 15.1 °F 72% 29.48 in 10.0 mi SW 16.1 mph 26.5 mph N/A   Overcast
9:53 PM 21.0 °F 8.1 °F 12.9 °F 71% 29.49 in 10.0 mi WSW 13.8 mph 24.2 mph 0.00 in   Overcast
10:53 PM 19.9 °F 4.3 °F 12.0 °F 71% 29.52 in 9.0 mi SW 19.6 mph 31.1 mph 0.00 in Snow Light Snow
11:53 PM 19.9 °F 3.5 °F 10.9 °F 68% 29.50 in 7.0 mi SW 21.9 mph 32.2 mph 0.00 in Snow Light Snow